EN

Hourly Weather Gogolinek

Today, 18 May, Tuesday

Time Temperature Precipitation Wind Pressure Humidity
00:00 +12°C° 0.1 mm 1 mps 743 mmHg 85%
01:00 +12°C° 0 mm 1 mps 743 mmHg 87%
02:00 +12°C° 0.2 mm 1 mps 744 mmHg 89%
03:00 +11°C° 0.2 mm 1 mps 744 mmHg 91%
04:00 +11°C° 0.2 mm 1 mps 744 mmHg 92%
05:00 +12°C° 0.2 mm 1 mps 744 mmHg 91%
06:00 +12°C° 0.2 mm 1 mps 744 mmHg 89%
07:00 +13°C° 0.2 mm 1 mps 744 mmHg 88%
08:00 +13°C° 0.6 mm 1 mps 745 mmHg 86%
09:00 +14°C° 0.6 mm 2 mps 745 mmHg 84%
10:00 +14°C° 0.6 mm 2 mps 745 mmHg 82%
11:00 +14°C° 0.5 mm 2 mps 745 mmHg 81%
12:00 +15°C° 0.5 mm 2 mps 745 mmHg 79%
13:00 +15°C° 0.5 mm 2 mps 746 mmHg 77%
14:00 +15°C° 0.4 mm 2 mps 746 mmHg 76%
15:00 +15°C° 0.4 mm 2 mps 746 mmHg 76%
16:00 +14°C° 0.4 mm 3 mps 746 mmHg 75%
17:00 +15°C° 0.6 mm 2 mps 746 mmHg 78%
18:00 +14°C° 0.6 mm 2 mps 746 mmHg 81%
19:00 +13°C° 0.6 mm 2 mps 746 mmHg 84%
20:00 +12°C° 0.1 mm 2 mps 747 mmHg 87%
21:00 +10°C° 0.1 mm 2 mps 747 mmHg 89%
22:00 +10°C° 0.1 mm 2 mps 747 mmHg 92%
23:00 +9°C° 0 mm 2 mps 747 mmHg 92%

Tomorrow, 19 May, Wednesday

Time Temperature Precipitation Wind Pressure Humidity
00:00 +8°C° 0 mm 2 mps 747 mmHg 93%
01:00 +8°C° 0 mm 2 mps 747 mmHg 93%
02:00 +7°C° 0 mm 3 mps 748 mmHg 93%
03:00 +7°C° 0 mm 3 mps 748 mmHg 93%
04:00 +7°C° 0 mm 3 mps 748 mmHg 94%
05:00 +8°C° 0 mm 3 mps 748 mmHg 90%
06:00 +8°C° 0 mm 4 mps 748 mmHg 86%
07:00 +10°C° 0 mm 4 mps 748 mmHg 83%
08:00 +12°C° 0 mm 4 mps 748 mmHg 75%
09:00 +13°C° 0 mm 5 mps 748 mmHg 68%
10:00 +15°C° 0 mm 5 mps 748 mmHg 60%
11:00 +14°C° 0.1 mm 5 mps 748 mmHg 62%
12:00 +14°C° 0.1 mm 5 mps 748 mmHg 65%
13:00 +14°C° 0.1 mm 5 mps 748 mmHg 67%
14:00 +14°C° 0.3 mm 5 mps 748 mmHg 65%
15:00 +14°C° 0.3 mm 4 mps 748 mmHg 63%
16:00 +15°C° 0.3 mm 4 mps 748 mmHg 61%
17:00 +13°C° 0 mm 4 mps 749 mmHg 65%
18:00 +12°C° 0 mm 4 mps 749 mmHg 69%
19:00 +11°C° 0 mm 3 mps 749 mmHg 73%
20:00 +10°C° 0 mm 3 mps 750 mmHg 76%
21:00 +8°C° 0 mm 3 mps 750 mmHg 79%
22:00 +7°C° 0 mm 2 mps 750 mmHg 82%
23:00 +6°C° 0 mm 2 mps 750 mmHg 83%

Day after tomorrow, 20 May, Thursday

Time Temperature Precipitation Wind Pressure Humidity
00:00 +6°C° 0 mm 2 mps 750 mmHg 84%
01:00 +5°C° 0 mm 2 mps 750 mmHg 86%
02:00 +5°C° 0 mm 2 mps 751 mmHg 87%
03:00 +5°C° 0 mm 2 mps 751 mmHg 88%
04:00 +5°C° 0 mm 2 mps 751 mmHg 89%
05:00 +7°C° 0 mm 3 mps 751 mmHg 83%
06:00 +8°C° 0 mm 3 mps 751 mmHg 78%
07:00 +10°C° 0 mm 3 mps 752 mmHg 72%
08:00 +12°C° 0 mm 3 mps 752 mmHg 67%
09:00 +13°C° 0 mm 3 mps 752 mmHg 61%
10:00 +15°C° 0 mm 4 mps 752 mmHg 56%
11:00 +15°C° 0 mm 4 mps 752 mmHg 57%
12:00 +15°C° 0 mm 5 mps 752 mmHg 58%
13:00 +15°C° 0 mm 6 mps 752 mmHg 60%
14:00 +15°C° 0 mm 5 mps 752 mmHg 60%
15:00 +14°C° 0 mm 5 mps 752 mmHg 61%
16:00 +14°C° 0 mm 5 mps 752 mmHg 62%
17:00 +13°C° 0 mm 4 mps 752 mmHg 66%
18:00 +12°C° 0 mm 4 mps 753 mmHg 70%
19:00 +11°C° 0 mm 3 mps 753 mmHg 75%
20:00 +10°C° 0 mm 3 mps 753 mmHg 79%
21:00 +8°C° 0 mm 3 mps 753 mmHg 83%
22:00 +7°C° 0 mm 2 mps 753 mmHg 87%
23:00 +6°C° 0 mm 2 mps 753 mmHg 88%

21 May, Friday

Time Temperature Precipitation Wind Pressure Humidity
00:00 +6°C° 0 mm 2 mps 753 mmHg 90%
01:00 +6°C° 0 mm 2 mps 753 mmHg 91%
02:00 +6°C° 0 mm 2 mps 753 mmHg 92%
03:00 +5°C° 0 mm 2 mps 753 mmHg 92%
04:00 +5°C° 0 mm 2 mps 753 mmHg 93%
05:00 +7°C° 0 mm 3 mps 753 mmHg 87%
06:00 +8°C° 0 mm 4 mps 752 mmHg 82%
07:00 +10°C° 0 mm 4 mps 752 mmHg 77%
08:00 +12°C° 0 mm 5 mps 752 mmHg 72%
09:00 +13°C° 0 mm 5 mps 752 mmHg 67%
10:00 +15°C° 0 mm 6 mps 751 mmHg 62%
11:00 +15°C° 0.1 mm 6 mps 751 mmHg 62%
12:00 +15°C° 0.1 mm 6 mps 750 mmHg 61%
13:00 +16°C° 0.1 mm 7 mps 750 mmHg 60%
14:00 +16°C° 0.1 mm 6 mps 750 mmHg 61%
15:00 +16°C° 0.1 mm 6 mps 749 mmHg 61%
16:00 +16°C° 0.1 mm 6 mps 749 mmHg 61%
17:00 +15°C° 0.1 mm 6 mps 748 mmHg 64%
18:00 +14°C° 0.1 mm 5 mps 747 mmHg 66%
19:00 +14°C° 0.1 mm 5 mps 747 mmHg 69%
20:00 +13°C° 0.2 mm 4 mps 747 mmHg 75%
21:00 +12°C° 0.2 mm 3 mps 746 mmHg 82%
22:00 +12°C° 0.2 mm 2 mps 746 mmHg 89%
23:00 +11°C° 0.1 mm 3 mps 746 mmHg 89%

22 May, Saturday

Time Temperature Precipitation Wind Pressure Humidity
00:00 +11°C° 0.1 mm 3 mps 745 mmHg 89%
01:00 +11°C° 0.1 mm 4 mps 745 mmHg 89%
02:00 +10°C° 0.1 mm 4 mps 745 mmHg 90%
03:00 +10°C° 0.1 mm 3 mps 744 mmHg 90%
04:00 +10°C° 0.1 mm 3 mps 744 mmHg 91%
05:00 +11°C° 0 mm 3 mps 744 mmHg 89%
06:00 +11°C° 0 mm 3 mps 744 mmHg 87%
07:00 +12°C° 0 mm 4 mps 744 mmHg 84%
08:00 +13°C° 0.2 mm 4 mps 744 mmHg 84%
09:00 +13°C° 0.2 mm 4 mps 744 mmHg 83%
10:00 +14°C° 0.2 mm 4 mps 744 mmHg 82%
11:00 +14°C° 0.4 mm 4 mps 744 mmHg 82%
12:00 +14°C° 0.4 mm 4 mps 743 mmHg 82%
13:00 +15°C° 0.4 mm 4 mps 743 mmHg 82%
14:00 +14°C° 0.8 mm 4 mps 743 mmHg 85%
15:00 +13°C° 0.8 mm 4 mps 743 mmHg 89%
16:00 +12°C° 0.8 mm 3 mps 743 mmHg 93%
17:00 +12°C° 0.2 mm 4 mps 743 mmHg 91%
18:00 +11°C° 0.2 mm 4 mps 743 mmHg 90%
19:00 +11°C° 0.2 mm 4 mps 744 mmHg 89%
20:00 +10°C° 0 mm 4 mps 744 mmHg 90%
21:00 +10°C° 0 mm 3 mps 744 mmHg 91%
22:00 +9°C° 0 mm 3 mps 745 mmHg 92%
23:00 +8°C° 0 mm 3 mps 745 mmHg 92%

23 May, Sunday

Time Temperature Precipitation Wind Pressure Humidity
00:00 +7°C° 0 mm 4 mps 745 mmHg 91%
01:00 +6°C° 0 mm 4 mps 745 mmHg 91%
02:00 +6°C° 0 mm 4 mps 745 mmHg 92%
03:00 +6°C° 0 mm 4 mps 745 mmHg 94%
04:00 +6°C° 0 mm 4 mps 745 mmHg 95%
05:00 +7°C° 0 mm 5 mps 746 mmHg 92%
06:00 +8°C° 0 mm 5 mps 746 mmHg 88%
07:00 +9°C° 0 mm 6 mps 746 mmHg 84%
08:00 +10°C° 0 mm 6 mps 747 mmHg 77%
09:00 +11°C° 0 mm 6 mps 747 mmHg 69%
10:00 +14°C° 0 mm 6 mps 747 mmHg 61%
11:00 +14°C° 0.1 mm 7 mps 747 mmHg 57%
12:00 +15°C° 0.1 mm 7 mps 747 mmHg 52%
13:00 +16°C° 0.1 mm 7 mps 747 mmHg 48%
14:00 +15°C° 0 mm 7 mps 747 mmHg 51%
15:00 +15°C° 0 mm 6 mps 748 mmHg 53%
16:00 +14°C° 0 mm 6 mps 748 mmHg 56%
17:00 +13°C° 0 mm 5 mps 748 mmHg 60%
18:00 +12°C° 0 mm 5 mps 749 mmHg 64%
19:00 +11°C° 0 mm 4 mps 749 mmHg 69%
20:00 +10°C° 0 mm 3 mps 749 mmHg 72%
21:00 +9°C° 0 mm 3 mps 750 mmHg 76%
22:00 +7°C° 0 mm 3 mps 750 mmHg 80%
23:00 +7°C° 0 mm 3 mps 750 mmHg 80%
Show more